2022-087E (53303 NORAD) Tracking and Keplerian Element Data

This shows tracking and keplerian element data for the satellite.

Feedback or suggestion? Click here.




ElementValue
Catalog53303
Name2022-087E
Epoch Orbit1782
Epoch Day325.28279017
Epoch Year2022
RAAN37.9503
Inclination97.3967
Eccentricity0.0014624
Argument of Perigee241.4636
Mean Anonmoly157.3307
Mean Motion15.23361422
Decay Rate6.063E-05
L11 53303U 22087E 22325.28279017 .00006063 00000+0 25734-3 0 9991
L22 53303 97.3967 37.9503 0014624 241.4636 157.3307 15.23361422 17820



Live tracking and technical data element details for 2022-087E (NORAD 53303). 2022-087E can be tracked NOW for your location showing map with azimuth and elevation plus other details from your city location.







IsCatalogInMostPopularTable: catalog: 53303, numindb: 5
Update: records affected: 1



GetName: 53303 2022-087E

Hit Count: updated at: Thu, 08 Dec 2022 20:43:40 GMT